StationID,Date,MaxTemp,MinTemp,Precipitation,Snowfall,SnowDepth
"USC00504094","1965-07-06",,,,0.00,0.00
"USC00504094","1965-07-07",,,,0.00,0.00
"USC00504094","1965-07-08",,,,0.00,0.00
"USC00504094","1965-07-09",,,,0.00,0.00
"USC00504094","1965-07-10",,,,0.00,0.00
"USC00504094","1965-07-11",77.00,53.06,0.00,0.00,0.00
"USC00504094","1965-07-12",71.06,53.96,0.00,0.00,0.00
"USC00504094","1965-07-13",73.94,57.02,0.00,0.00,0.00
"USC00504094","1965-07-14",73.94,55.94,97.00,0.00,0.00
"USC00504094","1965-07-15",,,0.00,0.00,0.00
"USC00504094","1965-07-16",,,0.00,0.00,0.00
"USC00504094","1965-07-17",62.06,50.00,0.00,0.00,0.00
"USC00504094","1965-07-18",60.98,51.08,0.00,0.00,0.00
"USC00504094","1965-07-19",62.06,50.00,5.00,0.00,0.00
"USC00504094","1965-07-20",71.96,46.04,0.00,0.00,0.00
"USC00504094","1965-07-21",71.06,42.08,0.00,0.00,0.00
"USC00504094","1965-07-22",57.02,50.00,89.00,0.00,0.00
"USC00504094","1965-07-23",55.94,50.00,64.00,0.00,0.00
"USC00504094","1965-07-24",55.94,48.92,0.00,0.00,0.00
"USC00504094","1965-07-25",60.98,46.94,0.00,0.00,0.00
"USC00504094","1965-07-26",60.98,48.92,165.00,0.00,0.00
"USC00504094","1965-07-27",73.94,46.94,0.00,0.00,0.00
"USC00504094","1965-07-28",69.98,55.04,0.00,0.00,0.00
"USC00504094","1965-07-29",69.98,48.92,0.00,0.00,0.00
"USC00504094","1965-07-30",69.08,51.98,0.00,0.00,0.00
"USC00504094","1965-07-31",73.94,53.06,0.00,0.00,0.00
"USC00504094","1965-08-01",73.94,53.06,0.00,0.00,0.00
"USC00504094","1965-08-02",,,0.00,0.00,0.00
"USC00504094","1965-08-03",69.08,53.96,0.00,0.00,0.00
"USC00504094","1965-08-04",73.04,48.02,0.00,0.00,0.00
"USC00504094","1965-08-05",75.02,50.00,0.00,0.00,0.00
"USC00504094","1965-08-06",75.02,48.92,0.00,0.00,0.00
"USC00504094","1965-08-07",75.02,50.00,0.00,0.00,0.00
"USC00504094","1965-08-08",73.94,59.00,0.00,0.00,0.00
"USC00504094","1965-08-09",75.02,59.00,0.00,0.00,0.00
"USC00504094","1965-08-10",73.94,,3.00,0.00,0.00
"USC00504094","1965-08-11",64.94,53.06,122.00,0.00,0.00
"USC00504094","1965-08-12",62.06,48.92,0.00,0.00,0.00
"USC00504094","1965-08-13",64.04,44.06,0.00,0.00,0.00
"USC00504094","1965-08-14",60.08,51.98,0.00,0.00,0.00
"USC00504094","1965-08-15",57.92,50.00,53.00,0.00,0.00
"USC00504094","1965-08-16",57.02,51.08,130.00,0.00,0.00
"USC00504094","1965-08-17",57.02,53.06,155.00,0.00,0.00
"USC00504094","1965-08-18",69.08,51.98,13.00,0.00,0.00
"USC00504094","1965-08-19",71.96,50.00,0.00,0.00,0.00
"USC00504094","1965-08-20",73.04,51.08,0.00,0.00,0.00
"USC00504094","1965-08-21",66.92,48.02,0.00,0.00,0.00
"USC00504094","1965-08-22",77.00,41.00,0.00,0.00,0.00
"USC00504094","1965-08-23",75.92,46.94,0.00,0.00,0.00
"USC00504094","1965-08-24",69.08,51.08,43.00,0.00,0.00
"USC00504094","1965-08-25",62.96,42.08,0.00,0.00,0.00
"USC00504094","1965-08-26",62.06,44.96,46.00,0.00,0.00
"USC00504094","1965-08-27",53.96,46.94,38.00,0.00,0.00
"USC00504094","1965-08-28",62.06,48.02,0.00,0.00,0.00
"USC00504094","1965-08-29",57.92,48.92,119.00,0.00,0.00
"USC00504094","1965-08-30",53.96,48.92,757.00,0.00,0.00
"USC00504094","1965-08-31",60.98,48.02,371.00,0.00,0.00
"USC00504094","1965-11-01",48.02,37.94,38.00,0.00,0.00
"USC00504094","1965-11-02",44.06,37.94,20.00,0.00,0.00
"USC00504094","1965-11-03",42.08,30.02,5.00,0.00,0.00
"USC00504094","1965-11-04",39.02,28.94,0.00,0.00,0.00
"USC00504094","1965-11-05",35.96,28.94,0.00,0.00,0.00
"USC00504094","1965-11-06",37.94,17.06,0.00,0.00,0.00
"USC00504094","1965-11-07",37.94,17.96,0.00,0.00,0.00
"USC00504094","1965-11-08",35.96,21.02,0.00,0.00,0.00
"USC00504094","1965-11-09",37.04,21.02,0.00,0.00,0.00
"USC00504094","1965-11-10",35.96,15.98,0.00,0.00,0.00
"USC00504094","1965-11-11",32.00,19.04,0.00,0.00,0.00
"USC00504094","1965-11-12",,,0.00,0.00,0.00
"USC00504094","1965-11-13",35.96,17.96,0.00,0.00,0.00
"USC00504094","1965-11-14",35.96,17.06,0.00,0.00,0.00
"USC00504094","1965-11-15",37.94,23.00,0.00,0.00,0.00
"USC00504094","1965-11-16",35.96,30.02,135.00,0.00,0.00
"USC00504094","1965-11-17",37.04,17.96,0.00,0.00,0.00
"USC00504094","1965-11-18",33.08,21.92,0.00,0.00,0.00
"USC00504094","1965-11-19",33.98,26.06,0.00,0.00,0.00
"USC00504094","1965-11-20",33.08,26.06,69.00,51.00,51.00
"USC00504094","1965-11-21",30.92,24.08,0.00,0.00,51.00
"USC00504094","1965-11-22",26.06,8.06,0.00,0.00,51.00
"USC00504094","1965-11-23",24.08,-0.04,0.00,0.00,51.00
"USC00504094","1965-11-24",19.94,-7.06,0.00,0.00,51.00
"USC00504094","1965-11-25",24.98,6.08,0.00,0.00,51.00
"USC00504094","1965-11-26",33.98,24.08,79.00,165.00,203.00
"USC00504094","1965-11-27",44.96,30.02,0.00,0.00,76.00
"USC00504094","1965-11-28",44.06,28.94,30.00,0.00,0.00
"USC00504094","1965-11-29",46.94,32.00,163.00,0.00,0.00
"USC00504094","1965-11-30",42.08,33.08,36.00,0.00,0.00
"USC00504094","1965-12-01",42.98,37.04,163.00,,
"USC00504094","1965-12-02",46.94,33.98,56.00,,
"USC00504094","1965-12-03",39.02,30.92,51.00,,
"USC00504094","1965-12-04",37.04,32.00,51.00,,
"USC00504094","1965-12-05",39.92,30.92,76.00,,
"USC00504094","1965-12-06",37.04,32.00,76.00,,
"USC00504094","1965-12-07",42.08,33.08,25.00,,
"USC00504094","1965-12-08",37.94,32.00,25.00,,
"USC00504094","1965-12-09",68.00,32.00,3.00,,
"USC00504094","1965-12-10",39.02,35.96,76.00,,
"USC00504094","1965-12-11",39.02,33.98,38.00,,
"USC00504094","1965-12-12",39.02,33.08,25.00,,
"USC00504094","1965-12-13",37.94,35.06,20.00,,
"USC00504094","1965-12-14",42.98,35.96,203.00,,
"USC00504094","1965-12-15",41.00,33.98,76.00,,
"USC00504094","1965-12-16",39.92,33.98,178.00,,
"USC00504094","1965-12-17",48.92,37.94,102.00,,
"USC00504094","1965-12-18",48.92,33.08,51.00,,
"USC00504094","1965-12-19",46.04,32.00,152.00,,
"USC00504094","1965-12-20",39.92,33.98,279.00,,
"USC00504094","1965-12-21",37.04,30.92,51.00,,
"USC00504094","1965-12-22",39.02,33.08,229.00,,
"USC00504094","1965-12-23",37.04,17.96,0.00,,
"USC00504094","1965-12-24",21.02,15.08,0.00,,
"USC00504094","1965-12-25",26.06,10.04,0.00,,
"USC00504094","1965-12-26",14.00,8.96,0.00,,
"USC00504094","1965-12-27",17.06,8.96,0.00,,
"USC00504094","1965-12-28",21.02,12.92,0.00,,
"USC00504094","1965-12-29",32.00,15.08,0.00,,
"USC00504094","1965-12-30",17.96,8.96,0.00,,
"USC00504094","1965-12-31",17.06,10.04,0.00,,
"USC00504094","1966-01-01",15.98,10.94,0.00,,
"USC00504094","1966-01-02",12.02,5.00,0.00,,
"USC00504094","1966-01-03",8.06,5.00,0.00,,
"USC00504094","1966-01-04",6.98,3.92,0.00,,
"USC00504094","1966-01-05",8.06,5.00,0.00,,
"USC00504094","1966-01-06",6.98,1.04,0.00,,
"USC00504094","1966-01-07",17.96,1.04,0.00,,
"USC00504094","1966-01-08",24.98,12.02,0.00,,
"USC00504094","1966-01-09",19.04,12.02,0.00,,
"USC00504094","1966-01-10",19.94,6.98,0.00,,
"USC00504094","1966-01-11",21.02,8.96,0.00,,
"USC00504094","1966-01-12",21.02,12.02,0.00,,
"USC00504094","1966-01-13",24.98,17.96,46.00,,
"USC00504094","1966-01-14",26.96,17.96,0.00,,
"USC00504094","1966-01-15",33.08,26.06,241.00,,
"USC00504094","1966-01-16",33.98,32.00,198.00,,305.00
"USC00504094","1966-01-17",35.96,28.94,81.00,,
"USC00504094","1966-01-18",28.94,17.96,0.00,,
"USC00504094","1966-01-19",24.98,15.98,64.00,,
"USC00504094","1966-01-20",26.96,15.08,43.00,,
"USC00504094","1966-01-21",26.96,19.04,0.00,,
"USC00504094","1966-01-22",24.98,17.96,0.00,,
"USC00504094","1966-01-23",21.92,6.08,0.00,,
"USC00504094","1966-01-24",26.06,14.00,0.00,,
"USC00504094","1966-01-25",35.06,21.02,0.00,,
"USC00504094","1966-01-26",30.92,21.02,0.00,,
"USC00504094","1966-01-27",26.06,14.00,0.00,,
"USC00504094","1966-01-28",24.08,6.08,0.00,,
"USC00504094","1966-01-29",26.96,10.04,10.00,,
"USC00504094","1966-01-30",26.06,,41.00,,
"USC00504094","1966-01-31",30.92,23.00,0.00,,
"USC00504094","1966-03-01",35.06,21.92,0.00,,0.00
"USC00504094","1966-03-02",30.02,12.92,0.00,,0.00
"USC00504094","1966-03-03",37.04,19.04,25.00,,25.00
"USC00504094","1966-03-04",42.08,30.02,0.00,,0.00
"USC00504094","1966-03-05",41.00,28.94,0.00,,0.00
"USC00504094","1966-03-06",,,0.00,,0.00
"USC00504094","1966-03-07",32.00,21.92,0.00,,0.00
"USC00504094","1966-03-08",26.06,17.96,64.00,,102.00
"USC00504094","1966-03-09",33.98,19.04,168.00,,203.00
"USC00504094","1966-03-10",30.92,19.04,76.00,,
"USC00504094","1966-03-11",35.06,21.92,0.00,,
"USC00504094","1966-03-12",,,229.00,,
"USC00504094","1966-03-13",37.94,33.08,102.00,,229.00
"USC00504094","1966-03-14",44.06,33.98,51.00,,
"USC00504094","1966-03-15",42.08,33.08,0.00,,
"USC00504094","1966-03-16",42.08,30.02,0.00,,
"USC00504094","1966-03-17",46.04,32.00,10.00,,
"USC00504094","1966-03-18",44.96,28.94,0.00,,
"USC00504094","1966-03-19",44.06,32.00,0.00,,102.00
"USC00504094","1966-03-20",44.96,30.02,0.00,,102.00
"USC00504094","1966-03-21",44.06,30.02,20.00,,0.00
"USC00504094","1966-03-22",41.00,35.06,51.00,,0.00
"USC00504094","1966-03-23",39.92,33.98,183.00,,0.00
"USC00504094","1966-03-24",41.00,33.08,102.00,,0.00
"USC00504094","1966-03-25",44.06,35.96,71.00,,0.00
"USC00504094","1966-03-26",44.06,37.94,208.00,,0.00
"USC00504094","1966-03-27",44.06,35.06,30.00,,0.00
"USC00504094","1966-03-28",48.02,37.94,224.00,,0.00
"USC00504094","1966-03-29",44.96,35.96,356.00,,0.00
"USC00504094","1966-03-30",42.98,39.02,155.00,,0.00
"USC00504094","1966-03-31",44.96,35.06,51.00,,0.00
"USC00504094","1966-04-01",48.92,33.98,3.00,0.00,0.00
"USC00504094","1966-04-02",57.02,35.96,102.00,0.00,0.00
"USC00504094","1966-04-03",48.92,37.04,140.00,0.00,0.00
"USC00504094","1966-04-04",48.92,33.98,0.00,0.00,0.00
"USC00504094","1966-04-05",51.08,33.08,0.00,0.00,0.00
"USC00504094","1966-04-06",60.98,35.06,0.00,0.00,0.00
"USC00504094","1966-04-07",60.08,32.00,0.00,0.00,0.00
"USC00504094","1966-04-08",60.08,35.06,0.00,0.00,0.00
"USC00504094","1966-04-09",59.00,28.94,0.00,0.00,0.00
"USC00504094","1966-04-10",42.98,21.02,0.00,0.00,0.00
"USC00504094","1966-04-11",42.98,28.04,0.00,0.00,0.00
"USC00504094","1966-04-12",44.06,26.06,0.00,0.00,0.00
"USC00504094","1966-04-13",42.08,33.98,0.00,0.00,0.00
"USC00504094","1966-04-14",42.08,33.08,0.00,0.00,0.00
"USC00504094","1966-04-15",44.96,39.92,0.00,0.00,0.00
"USC00504094","1966-04-16",41.00,32.00,0.00,0.00,0.00
"USC00504094","1966-04-17",48.92,35.06,0.00,0.00,0.00
"USC00504094","1966-04-18",48.92,32.00,0.00,0.00,0.00
"USC00504094","1966-04-19",46.04,32.00,0.00,0.00,0.00
"USC00504094","1966-04-20",44.96,37.94,0.00,0.00,0.00
"USC00504094","1966-04-21",42.98,37.04,0.00,0.00,0.00
"USC00504094","1966-04-22",44.96,39.02,305.00,0.00,0.00
"USC00504094","1966-04-23",44.06,35.06,71.00,0.00,0.00
"USC00504094","1966-04-24",44.06,37.04,94.00,0.00,0.00
"USC00504094","1966-04-25",48.02,35.96,38.00,0.00,0.00
"USC00504094","1966-04-26",51.08,30.92,0.00,0.00,0.00
"USC00504094","1966-04-27",51.08,32.00,0.00,0.00,0.00
"USC00504094","1966-04-28",51.98,33.08,0.00,0.00,0.00
"USC00504094","1966-04-29",55.04,33.08,0.00,0.00,0.00
"USC00504094","1966-04-30",55.94,42.98,0.00,0.00,0.00
"USC00504094","1966-05-01",55.94,37.04,18.00,0.00,0.00
"USC00504094","1966-05-02",46.94,39.92,274.00,0.00,0.00
"USC00504094","1966-05-03",46.94,42.08,20.00,0.00,0.00
"USC00504094","1966-05-04",42.98,39.92,292.00,0.00,0.00
"USC00504094","1966-05-05",50.00,39.92,452.00,0.00,0.00
"USC00504094","1966-05-06",55.04,39.92,0.00,0.00,0.00
"USC00504094","1966-05-07",53.06,42.98,51.00,0.00,0.00
"USC00504094","1966-05-08",51.98,39.02,165.00,0.00,0.00
"USC00504094","1966-05-09",55.04,33.08,0.00,0.00,0.00
"USC00504094","1966-05-10",55.04,33.08,0.00,0.00,0.00
"USC00504094","1966-05-11",55.04,44.06,127.00,0.00,0.00
"USC00504094","1966-05-12",48.92,39.92,25.00,0.00,0.00
"USC00504094","1966-05-13",46.94,39.02,0.00,0.00,0.00
"USC00504094","1966-05-14",50.00,39.02,38.00,0.00,0.00
"USC00504094","1966-05-15",57.02,39.02,51.00,0.00,0.00
"USC00504094","1966-05-16",57.02,41.00,0.00,0.00,0.00
"USC00504094","1966-05-17",51.98,42.98,46.00,0.00,0.00
"USC00504094","1966-05-18",48.02,39.92,254.00,0.00,0.00
"USC00504094","1966-05-19",44.06,35.96,257.00,0.00,0.00
"USC00504094","1966-05-20",48.92,37.94,150.00,0.00,0.00
"USC00504094","1966-05-21",50.00,39.02,10.00,0.00,0.00
"USC00504094","1966-05-22",51.98,39.02,239.00,0.00,0.00
"USC00504094","1966-05-23",44.96,41.00,145.00,0.00,0.00
"USC00504094","1966-05-24",48.92,37.04,46.00,0.00,0.00
"USC00504094","1966-05-25",48.92,33.98,5.00,0.00,0.00
"USC00504094","1966-05-26",50.00,39.02,20.00,0.00,0.00
"USC00504094","1966-05-27",48.02,39.92,119.00,0.00,0.00
"USC00504094","1966-05-28",50.00,39.02,5.00,0.00,0.00
"USC00504094","1966-05-29",51.08,42.98,51.00,0.00,0.00
"USC00504094","1966-05-30",60.98,37.04,0.00,0.00,0.00
"USC00504094","1966-05-31",62.96,44.96,0.00,0.00,0.00
"USC00504094","1966-06-01",64.04,46.04,0.00,0.00,0.00
"USC00504094","1966-06-02",69.98,44.96,0.00,0.00,0.00
"USC00504094","1966-06-03",69.98,44.06,0.00,0.00,0.00
"USC00504094","1966-06-04",68.00,53.96,0.00,0.00,0.00
"USC00504094","1966-06-05",68.00,50.00,0.00,0.00,0.00
"USC00504094","1966-06-06",69.98,46.04,0.00,0.00,0.00
"USC00504094","1966-06-07",68.00,46.04,0.00,0.00,0.00
"USC00504094","1966-06-08",68.00,46.94,0.00,0.00,0.00
"USC00504094","1966-06-09",66.92,51.08,0.00,0.00,0.00
"USC00504094","1966-06-10",59.00,46.04,0.00,0.00,0.00
"USC00504094","1966-06-11",60.08,50.00,0.00,0.00,0.00
"USC00504094","1966-06-12",60.98,48.92,0.00,0.00,0.00
"USC00504094","1966-06-13",66.92,42.98,0.00,0.00,0.00
"USC00504094","1966-06-14",69.98,42.98,0.00,0.00,0.00
"USC00504094","1966-06-15",69.98,44.96,0.00,0.00,0.00
"USC00504094","1966-06-16",59.00,51.08,109.00,0.00,0.00
"USC00504094","1966-06-17",59.00,53.96,18.00,0.00,0.00
"USC00504094","1966-06-18",57.02,48.02,127.00,0.00,0.00
"USC00504094","1966-06-19",55.94,42.08,0.00,0.00,0.00
"USC00504094","1966-06-20",60.98,48.92,0.00,0.00,0.00
"USC00504094","1966-06-21",66.92,42.08,0.00,0.00,0.00
"USC00504094","1966-06-22",69.08,44.96,0.00,0.00,0.00
"USC00504094","1966-06-23",64.94,50.00,0.00,0.00,0.00
"USC00504094","1966-06-24",57.02,48.92,0.00,0.00,0.00
"USC00504094","1966-06-25",62.06,44.96,0.00,0.00,0.00
"USC00504094","1966-06-26",62.06,41.00,0.00,0.00,0.00
"USC00504094","1966-06-27",64.94,48.92,0.00,0.00,0.00
"USC00504094","1966-06-28",66.02,44.96,0.00,0.00,0.00
"USC00504094","1966-06-29",60.08,51.08,0.00,0.00,0.00
"USC00504094","1966-06-30",59.00,48.92,0.00,0.00,0.00
"USC00504094","1966-07-01",69.08,51.08,0.00,0.00,0.00
"USC00504094","1966-07-02",69.08,50.00,0.00,0.00,0.00
"USC00504094","1966-07-03",60.98,48.02,0.00,0.00,0.00
"USC00504094","1966-07-04",,,0.00,0.00,0.00
"USC00504094","1966-07-05",64.04,46.04,0.00,0.00,0.00
"USC00504094","1966-07-06",62.96,51.98,0.00,0.00,0.00
"USC00504094","1966-07-07",62.96,51.08,0.00,0.00,0.00
"USC00504094","1966-07-08",62.96,48.92,0.00,0.00,0.00
"USC00504094","1966-07-09",62.96,48.02,64.00,0.00,0.00
"USC00504094","1966-07-10",69.08,44.96,0.00,0.00,0.00
"USC00504094","1966-07-11",68.00,46.94,0.00,0.00,0.00
"USC00504094","1966-07-12",68.00,48.92,0.00,0.00,0.00
"USC00504094","1966-07-13",69.08,51.98,0.00,0.00,0.00
"USC00504094","1966-07-14",73.04,51.08,0.00,0.00,0.00
"USC00504094","1966-07-15",73.94,51.08,0.00,0.00,0.00
"USC00504094","1966-07-16",78.08,57.02,0.00,0.00,0.00
"USC00504094","1966-07-17",78.08,53.96,0.00,0.00,0.00
"USC00504094","1966-07-18",57.92,53.96,76.00,0.00,0.00
"USC00504094","1966-07-19",57.02,53.06,84.00,0.00,0.00
"USC00504094","1966-07-20",57.92,51.98,43.00,0.00,0.00
"USC00504094","1966-07-21",62.06,53.06,0.00,0.00,0.00
"USC00504094","1966-07-22",71.96,53.06,0.00,0.00,0.00
"USC00504094","1966-07-23",78.98,51.98,0.00,0.00,0.00
"USC00504094","1966-07-24",80.96,51.98,0.00,0.00,0.00
"USC00504094","1966-07-25",82.94,55.04,0.00,0.00,0.00
"USC00504094","1966-07-26",82.04,51.08,0.00,0.00,0.00
"USC00504094","1966-07-27",60.08,53.96,132.00,0.00,0.00
"USC00504094","1966-07-28",55.94,51.98,310.00,0.00,0.00
"USC00504094","1966-07-29",59.00,51.08,71.00,0.00,0.00
"USC00504094","1966-07-30",55.94,51.08,102.00,0.00,0.00
"USC00504094","1966-07-31",55.94,50.00,127.00,0.00,0.00
"USC00504094","1966-08-01",55.94,50.00,89.00,0.00,0.00
"USC00504094","1966-08-02",57.02,51.98,89.00,0.00,0.00
"USC00504094","1966-08-03",59.00,51.08,20.00,0.00,0.00
"USC00504094","1966-08-04",64.04,46.94,5.00,0.00,0.00
"USC00504094","1966-08-05",66.02,44.96,0.00,0.00,0.00
"USC00504094","1966-08-06",71.96,50.00,0.00,0.00,0.00
"USC00504094","1966-08-07",69.08,51.98,0.00,0.00,0.00
"USC00504094","1966-08-08",55.94,51.08,51.00,0.00,0.00
"USC00504094","1966-08-09",55.04,48.02,279.00,0.00,0.00
"USC00504094","1966-08-10",53.96,48.02,33.00,0.00,0.00
"USC00504094","1966-08-11",53.96,48.02,74.00,0.00,0.00
"USC00504094","1966-08-12",62.96,48.02,0.00,0.00,0.00
"USC00504094","1966-08-13",60.98,41.00,0.00,0.00,0.00
"USC00504094","1966-08-14",59.00,50.00,183.00,0.00,0.00
"USC00504094","1966-08-15",59.00,48.92,287.00,0.00,0.00
"USC00504094","1966-08-16",53.96,50.00,267.00,0.00,0.00
"USC00504094","1966-08-17",55.04,48.92,157.00,0.00,0.00
"USC00504094","1966-08-18",62.06,48.92,46.00,0.00,0.00
"USC00504094","1966-08-19",60.98,48.02,25.00,0.00,0.00
"USC00504094","1966-08-20",55.04,48.92,140.00,0.00,0.00
"USC00504094","1966-08-21",62.06,44.06,0.00,0.00,0.00
"USC00504094","1966-08-22",62.06,44.06,178.00,0.00,0.00
"USC00504094","1966-08-23",60.08,51.08,406.00,0.00,0.00
"USC00504094","1966-08-24",59.00,53.06,178.00,0.00,0.00
"USC00504094","1966-08-25",59.00,48.02,0.00,0.00,0.00
"USC00504094","1966-08-26",69.98,44.96,0.00,0.00,0.00
"USC00504094","1966-08-27",71.96,53.96,0.00,0.00,0.00
"USC00504094","1966-08-28",71.96,53.96,13.00,0.00,0.00
"USC00504094","1966-08-29",57.92,50.00,0.00,0.00,0.00
"USC00504094","1966-08-30",55.94,48.92,64.00,0.00,0.00
"USC00504094","1966-08-31",53.96,48.92,229.00,0.00,0.00
"USC00504094","1966-09-01",53.06,48.02,76.00,0.00,0.00
"USC00504094","1966-09-02",51.08,46.94,89.00,0.00,0.00
"USC00504094","1966-09-03",51.08,44.06,119.00,0.00,0.00
"USC00504094","1966-09-04",55.04,44.96,617.00,0.00,0.00
"USC00504094","1966-09-05",,,,0.00,0.00
"USC00504094","1966-09-06",53.06,44.96,,0.00,0.00
"USC00504094","1966-09-07",53.06,44.96,132.00,0.00,0.00
"USC00504094","1966-09-08",64.94,37.94,0.00,0.00,0.00
"USC00504094","1966-09-09",64.04,46.94,25.00,0.00,0.00
"USC00504094","1966-09-10",57.02,44.96,0.00,0.00,0.00
"USC00504094","1966-09-11",,,0.00,0.00,0.00
"USC00504094","1966-09-12",57.02,42.98,0.00,0.00,0.00
"USC00504094","1966-09-13",57.92,51.08,312.00,0.00,0.00
"USC00504094","1966-09-14",62.06,44.06,140.00,0.00,0.00
"USC00504094","1966-09-15",62.96,48.02,56.00,0.00,0.00
"USC00504094","1966-09-16",62.06,50.00,76.00,0.00,0.00
"USC00504094","1966-09-17",60.08,46.04,30.00,0.00,0.00
"USC00504094","1966-09-18",55.94,44.06,0.00,0.00,0.00
"USC00504094","1966-09-19",53.96,46.94,406.00,0.00,0.00
"USC00504094","1966-09-20",51.08,46.04,71.00,0.00,0.00
"USC00504094","1966-09-21",53.96,44.96,183.00,0.00,0.00
"USC00504094","1966-09-22",60.08,41.00,0.00,0.00,0.00
"USC00504094","1966-09-23",62.06,48.92,25.00,0.00,0.00
"USC00504094","1966-09-24",,,203.00,0.00,0.00
"USC00504094","1966-09-25",,,51.00,0.00,0.00
"USC00504094","1966-09-26",57.02,46.94,97.00,0.00,0.00
"USC00504094","1966-09-27",53.96,48.92,56.00,0.00,0.00
"USC00504094","1966-09-28",53.96,46.94,157.00,0.00,0.00
"USC00504094","1966-09-29",50.00,44.06,130.00,0.00,0.00
"USC00504094","1966-09-30",53.96,44.06,267.00,0.00,0.00
"USC00504094","1966-10-01",55.94,39.92,0.00,0.00,0.00
"USC00504094","1966-10-02",53.96,42.08,81.00,0.00,0.00
"USC00504094","1966-10-03",53.06,46.04,297.00,0.00,0.00
"USC00504094","1966-10-04",51.98,48.02,503.00,0.00,0.00
"USC00504094","1966-10-05",50.00,35.96,25.00,0.00,0.00
"USC00504094","1966-10-06",48.02,42.08,117.00,0.00,0.00
"USC00504094","1966-10-07",48.02,44.06,391.00,0.00,0.00
"USC00504094","1966-10-08",,,376.00,0.00,0.00
"USC00504094","1966-10-09",,,122.00,0.00,0.00
"USC00504094","1966-10-10",48.92,41.00,254.00,0.00,0.00
"USC00504094","1966-10-11",48.02,33.98,0.00,0.00,0.00
"USC00504094","1966-10-12",46.94,32.00,0.00,0.00,0.00
"USC00504094","1966-10-13",44.96,39.02,97.00,0.00,0.00
"USC00504094","1966-10-14",44.96,39.92,86.00,0.00,0.00
"USC00504094","1966-10-15",44.06,33.98,267.00,0.00,0.00
"USC00504094","1966-10-16",44.96,39.92,312.00,0.00,0.00
"USC00504094","1966-10-17",46.04,39.02,264.00,0.00,0.00
"USC00504094","1966-10-18",44.96,37.04,574.00,0.00,0.00
"USC00504094","1966-10-19",42.98,35.06,216.00,0.00,0.00
"USC00504094","1966-10-20",39.92,28.94,15.00,0.00,0.00
"USC00504094","1966-10-21",42.98,30.02,0.00,0.00,0.00
"USC00504094","1966-10-22",,,127.00,0.00,0.00
"USC00504094","1966-10-23",42.98,30.92,38.00,0.00,0.00
"USC00504094","1966-10-24",39.92,28.04,20.00,0.00,0.00
"USC00504094","1966-10-25",42.98,32.00,0.00,0.00,0.00
"USC00504094","1966-10-26",39.92,28.04,0.00,0.00,0.00
"USC00504094","1966-10-27",42.98,33.08,5.00,0.00,0.00
"USC00504094","1966-10-28",41.00,32.00,8.00,0.00,0.00
"USC00504094","1966-10-29",46.04,26.06,203.00,0.00,0.00
"USC00504094","1966-10-30",46.04,37.04,152.00,0.00,0.00
"USC00504094","1966-10-31",46.94,37.04,33.00,0.00,0.00
"USC00504094","1966-11-01",51.98,37.94,259.00,,
"USC00504094","1966-11-02",42.08,37.94,64.00,,
"USC00504094","1966-11-03",46.04,37.04,279.00,,
"USC00504094","1966-11-04",48.92,35.96,457.00,,
"USC00504094","1966-11-05",42.98,30.92,0.00,,
"USC00504094","1966-11-06",37.94,30.92,15.00,,
"USC00504094","1966-11-07",39.92,28.94,0.00,,
"USC00504094","1966-11-08",39.02,30.02,51.00,,
"USC00504094","1966-11-09",37.94,30.02,109.00,,
"USC00504094","1966-11-10",33.08,12.02,0.00,,
"USC00504094","1966-11-11",30.02,23.00,0.00,,
"USC00504094","1966-11-12",30.92,24.08,0.00,,
"USC00504094","1966-11-13",28.04,12.02,0.00,,
"USC00504094","1966-11-14",26.06,21.92,0.00,,
"USC00504094","1966-11-15",26.96,19.04,0.00,,
"USC00504094","1966-11-16",26.96,21.92,0.00,,
"USC00504094","1966-11-17",28.94,19.04,0.00,,
"USC00504094","1966-11-18",30.02,19.04,140.00,,
"USC00504094","1966-11-19",30.02,10.04,0.00,,
"USC00504094","1966-11-20",30.02,-0.04,0.00,,
"USC00504094","1966-11-21",30.02,10.94,0.00,,
"USC00504094","1966-11-22",32.00,19.94,107.00,,
"USC00504094","1966-11-23",41.00,26.06,173.00,,
"USC00504094","1966-11-24",42.98,35.06,386.00,,
"USC00504094","1966-11-25",39.92,30.02,163.00,,
"USC00504094","1966-11-26",37.94,33.98,107.00,,
"USC00504094","1966-11-27",35.96,26.06,0.00,,
"USC00504094","1966-11-28",28.04,21.02,0.00,,
"USC00504094","1966-11-29",30.92,17.96,0.00,,
"USC00504094","1966-11-30",37.94,15.08,0.00,,
"USC00504094","1966-12-01",41.00,28.94,0.00,,
"USC00504094","1966-12-02",33.98,21.02,0.00,,
"USC00504094","1966-12-03",24.08,10.04,0.00,,
"USC00504094","1966-12-04",28.04,12.02,0.00,,
"USC00504094","1966-12-05",24.98,10.04,0.00,,
"USC00504094","1966-12-06",15.08,1.94,0.00,,
"USC00504094","1966-12-07",12.02,8.06,0.00,,
"USC00504094","1966-12-08",10.94,5.00,5.00,,
"USC00504094","1966-12-09",19.94,8.96,58.00,,
"USC00504094","1966-12-10",,,13.00,,
"USC00504094","1966-12-11",28.04,17.96,76.00,,
"USC00504094","1966-12-12",33.98,21.02,46.00,,
"USC00504094","1966-12-13",32.00,24.08,0.00,,
"USC00504094","1966-12-14",35.96,24.08,81.00,,
"USC00504094","1966-12-15",39.02,32.00,173.00,,
"USC00504094","1966-12-16",37.94,28.94,56.00,,
"USC00504094","1966-12-17",37.94,32.00,208.00,,
"USC00504094","1966-12-18",39.02,33.98,71.00,,
"USC00504094","1966-12-19",41.00,30.02,127.00,,
"USC00504094","1966-12-20",37.94,28.04,25.00,,
"USC00504094","1966-12-21",39.02,21.92,5.00,,
"USC00504094","1966-12-22",35.96,30.02,0.00,,
"USC00504094","1966-12-23",42.08,30.02,0.00,,
"USC00504094","1966-12-24",,,76.00,,
"USC00504094","1966-12-25",37.94,32.00,20.00,,
"USC00504094","1966-12-26",35.96,28.94,18.00,,
"USC00504094","1966-12-27",37.04,28.94,13.00,,
"USC00504094","1966-12-28",39.02,33.98,185.00,,
"USC00504094","1966-12-29",39.92,32.00,69.00,,
"USC00504094","1966-12-30",42.08,35.96,284.00,,